Weather in Nizhnyaya Bannovka

Russia / Saratov Oblast     50°43′53″N   45°38′50″E
temp.,
°C
wind,
m/s
gust,
m/s
humid.,
%
clouds,
%
prec.,
mm/h
press.,
hPa
HPBL,
m
9 march, tue
tue901:00−4nw129398 0.6 100944
04:00−4ne009699 0.7 100930
07:00−4n1297100 0.6 100992
10:00−4n4595100 2.3 1009266
13:00−3nnw4585100 0.1 1010613
16:00−4nw5878100 0.1 1011599
19:00−8wnw47870 0.0 1012182
22:00−9nw5118916 0.0 1014338
10 march, wed
wed1001:00−12nw5118831 0.0 1015312
04:00−14wnw5108942 0.0 1017292
07:00−15wnw5118915 0.0 1019334
10:00−14wnw6108621 0.0 1021404
13:00−13wnw79826 0.0 1022564
16:00−13wnw8118111 0.0 1023683
19:00−15nw6128569 0.0 1024594
22:00−17nw6128640 0.0 1026476
11 march, thu
thu1101:00−19nw510880 0.0 1027381
04:00−20nw48870 0.0 1028309
07:00−22nw46870 0.0 1030211
10:00−19nw45840 0.0 1031257
13:00−16nw45770 0.0 1032400
16:00−14nw57800 0.0 1032482
19:00−16nw48880 0.0 1032264
22:00−18nw35890 0.0 1033149
12 march, fri
fri1201:00−19nw33870 0.0 103483
04:00−18nw23904 0.0 103360
07:00−18nw23910 0.0 103441
10:00−15nnw22850 0.0 1036201
13:00−12ne118136 0.0 1036350
16:00−10e118044 0.0 1036318
19:00−13s119118 0.0 103620
22:00−14wnw11909 0.0 103820
13 march, sat
sat1301:00−15wsw11900 0.0 103820
04:00−15w12890 0.0 103820
07:00−15wsw11890 0.0 103820
10:00−12sw12800 0.0 1039182
13:00−8ssw34730 0.0 1038443
16:00−7ssw46740 0.0 1037672
19:00−10s228023 0.0 103521
22:00−11s228131 0.0 103522